User: anonymous   Login
Location: Sawmill Trailhead
(33.5800°N, 116.4497°W)
Time: 20:16:46
(UTC-07:00)
Language:

Uosat F - Orbit

View from above orbital plane
View from above orbital plane
View from above satellite
View from above satellite

Ground track
Ground track

The orbit data is extracted from the following two-line orbital elements,

1 21575U 91050B   15089.52979630  .00000425  00000-0  14785-3 0  9998
2 21575 098.7341 076.0016 0007176 180.8629 288.8437 14.40590519244704
Epoch (UTC): 30 March 2015 12:42:54
Eccentricity: 0.0007176
inclination: 98.7341°
perigee height: 751 km
apogee height: 761 km
right ascension of ascending node: 76.0016°
argument of perigee: 180.8629°
revolutions per day: 14.40590519
mean anomaly at epoch: 288.8437°
orbit number at epoch: 24470

The dashed part of the orbit path shows where the satellite is in the earth's shadow,  

DLR